Wind_Speed
25 25 25 26 24 22 22 20 18 16 15 15 13 10 9 11 8 10 10 9 9 9 8 8 7 8 9 8 7 5 3 3 2 1 1 1 3 3 4 5 7 7 6
27 24 25 25 24 25 25 23 19 19 16 16 14 13 11 11 10 11 11 8 8 8 9 8 8 7 7 7 6 4 4 2 2 2 3 2 1 2 3 3 4 4 4
24 23 23 23 25 26 26 24 22 20 19 17 15 14 12 11 11 10 9 9 9 10 9 8 8 7 6 5 5 4 3 3 2 3 4 3 3 3 2 3 4 5 4
18 19 22 25 25 26 26 26 24 22 22 20 18 16 14 13 13 11 10 9 10 10 8 6 5 4 5 4 4 2 1 1 3 5 5 4 4 4 6 4 4 5 4
16 19 23 24 24 25 27 28 27 25 24 22 20 19 18 17 16 14 13 12 11 11 9 6 4 3 4 3 4 3 1 1 4 5 5 3 2 2 3 3 3 3 4
17 21 24 25 25 26 28 28 28 28 27 24 24 22 21 20 18 16 16 14 12 12 10 9 8 6 4 4 2 2 1 1 1 3 4 4 4 4 2 2 3 2 0
23 26 27 26 28 29 29 29 31 31 29 29 27 25 25 23 20 19 18 16 16 16 15 14 12 9 7 4 1 3 1 1 1 3 5 4 5 3 2 1 2 1 1
25 30 32 30 27 27 29 31 33 33 32 31 31 29 27 27 23 22 20 18 19 18 17 16 14 13 11 9 7 4 2 3 2 3 3 4 3 3 2 1 1 3 2
30 33 31 29 30 27 28 30 32 34 34 33 33 31 31 32 27 25 24 23 22 22 20 19 18 16 13 12 11 9 6 5 3 4 5 6 4 3 2 3 2 1 1
33 33 31 27 25 28 30 29 30 31 34 33 34 33 32 33 30 27 26 25 25 24 22 20 19 18 16 15 15 14 13 11 9 7 6 5 4 2 1 1 1 2 2
31 28 28 31 27 26 24 23 25 27 29 31 32 33 32 33 33 29 28 29 30 28 26 24 23 20 19 18 16 16 15 11 11 9 7 6 6 4 3 2 3 2 2
26 29 33 30 25 19 17 19 19 21 23 28 29 32 32 32 32 32 30 32 31 30 30 28 25 22 22 20 18 16 13 12 13 12 11 10 9 8 6 4 5 5 5
28 30 26 19 16 18 18 18 17 16 17 21 22 21 24 28 30 30 31 31 32 32 31 28 24 23 22 22 20 19 15 17 15 14 13 12 10 8 7 6 5 5 5
28 26 21 19 20 18 18 17 17 17 15 17 18 18 21 25 28 27 26 29 31 30 29 26 23 23 24 25 22 20 20 20 18 17 14 11 11 10 6 6 4 4 4
24 21 18 16 16 16 16 16 18 20 17 18 19 19 18 20 23 25 25 27 30 31 25 24 22 23 26 25 25 25 23 22 21 18 16 15 14 11 8 6 6 4 3
17 18 16 15 15 15 16 19 16 17 16 17 20 20 24 25 25 23 23 23 25 26 22 20 22 23 24 24 24 25 27 25 25 22 19 17 16 14 10 9 9 8 7
14 15 14 14 15 14 14 13 16 19 15 15 15 16 15 19 20 23 24 22 21 20 23 20 20 22 24 24 24 24 25 29 25 23 22 19 17 13 11 12 11 9 8
14 14 14 14 14 15 15 14 13 16 14 18 17 16 17 17 18 18 17 19 22 24 24 22 22 24 24 23 23 25 22 23 24 24 21 19 18 16 15 14 13 11 9
14 15 14 14 15 16 16 17 16 16 18 19 22 21 17 15 15 14 14 19 19 20 25 25 23 22 21 21 23 23 23 24 23 24 22 20 19 18 17 16 14 11 9
14 15 14 13 14 14 14 14 16 16 17 16 16 18 19 16 17 17 15 17 21 20 20 23 23 23 26 27 26 26 25 25 25 26 25 24 22 20 19 17 16 13 12
13 19 20 16 17 17 16 16 16 15 15 15 17 18 15 15 17 18 19 18 20 23 24 25 23 25 26 28 28 28 28 26 27 27 27 25 22 20 19 17 16 13 12
17 22 24 21 19 19 18 17 15 14 16 17 19 21 17 15 17 17 18 20 21 21 22 24 25 25 28 30 30 30 28 26 27 27 26 24 22 19 18 17 15 14 11
28 27 26 26 23 20 19 19 18 16 17 16 18 19 21 21 19 18 18 16 17 18 18 20 22 23 25 27 29 30 28 27 28 26 26 24 22 21 20 18 16 14 12
24 24 25 26 26 26 25 22 21 17 16 19 17 20 20 20 18 18 16 15 11 12 14 15 16 20 22 24 25 24 25 24 23 23 23 22 21 19 19 18 17 15 12
21 23 24 24 23 24 25 26 26 22 17 16 18 18 17 16 15 14 13 10 7 6 10 11 11 14 18 19 19 18 18 18 17 18 19 19 20 21 20 17 16 13 11
22 23 24 24 23 22 22 21 21 25 22 20 17 16 14 13 11 10 9 7 6 4 4 6 7 8 8 10 11 12 13 14 15 16 17 18 20 20 19 17 15 13 10
Wind_Direction
268 270 265 260 262 265 265 271 275 280 283 291 300 299 293 303 304 299 303 302 307 311 299 299 295 302 302 303 303 302 312 322 290 116 46 103 63 65 58 56 45 34 26
272 268 260 261 259 260 261 266 272 274 275 283 287 293 293 300 302 303 306 313 317 313 311 302 284 293 294 313 321 336 6 12 279 148 154 160 98 77 67 52 49 45 41
267 265 266 265 258 259 260 262 266 268 268 271 270 278 281 284 291 293 296 302 293 301 306 306 302 298 295 309 317 332 360 22 64 160 143 138 110 87 91 79 74 49 61
269 263 267 272 269 267 264 260 261 262 263 262 261 265 266 267 270 271 272 275 275 284 296 300 302 299 292 295 300 326 344 1 66 103 107 116 118 97 101 65 44 34 78
279 270 276 284 277 268 263 263 261 258 257 260 259 256 256 256 258 260 258 263 263 272 281 281 291 299 321 291 276 311 337 98 110 106 110 111 100 116 100 69 59 52 117
294 280 281 280 277 270 265 263 261 259 257 256 254 255 257 256 255 253 259 251 241 244 254 252 254 267 305 338 11 15 347 207 168 160 148 143 139 130 113 76 59 89 342
288 292 287 282 277 271 268 262 258 253 256 253 253 251 252 253 250 250 247 249 241 239 239 234 238 247 242 244 202 149 147 57 124 192 162 156 156 160 157 115 32 354 293
302 304 302 279 276 279 272 263 258 253 252 253 253 251 251 251 247 245 243 244 235 233 237 243 241 240 239 230 223 226 196 162 150 138 150 135 159 146 155 176 319 316 317
305 309 307 297 282 279 274 268 264 256 254 253 255 255 253 256 252 245 237 238 237 234 234 232 233 232 229 228 220 218 209 192 159 149 151 153 157 166 202 202 189 87 140
307 307 308 302 293 283 278 276 273 262 259 261 260 258 257 259 258 251 245 244 242 237 235 235 230 231 229 224 223 218 218 214 200 188 174 169 177 164 85 118 145 149 160
310 306 307 307 293 288 279 279 278 274 267 264 262 264 263 258 257 253 246 244 245 243 237 233 229 227 227 227 229 226 228 228 212 215 209 205 206 223 237 274 295 292 217
310 312 313 303 294 278 280 282 279 277 271 269 267 267 266 263 261 258 252 247 248 244 243 240 237 229 229 225 223 227 225 215 211 213 213 213 218 220 233 275 293 289 280
314 313 307 299 288 285 281 276 270 267 267 270 264 263 267 271 269 266 261 251 245 244 249 244 241 232 232 227 220 221 210 218 216 217 220 224 229 230 243 267 263 273 274
312 311 303 303 304 302 294 281 270 264 256 262 256 257 266 271 274 275 265 253 242 236 247 245 240 231 228 227 219 215 216 223 223 224 226 227 218 214 241 250 251 272 300
312 309 306 307 306 305 299 295 286 279 274 267 266 263 265 267 273 288 280 260 247 238 228 231 223 220 214 218 218 219 220 221 224 224 220 215 209 219 238 236 232 254 248
314 316 316 312 310 309 307 304 295 288 287 279 275 270 272 277 283 277 277 276 266 251 207 212 218 212 207 209 211 217 223 222 226 223 219 217 214 225 231 222 227 242 250
316 318 318 315 313 313 312 310 309 314 307 296 283 283 284 287 283 282 272 262 260 235 219 219 217 213 217 214 210 212 214 222 227 220 221 224 222 228 219 226 228 239 253
329 325 321 319 318 312 305 299 301 298 301 305 308 303 296 286 283 279 270 251 232 222 223 223 218 216 216 213 209 215 215 221 222 221 220 222 219 223 220 225 228 232 242
334 328 323 319 315 310 309 305 301 299 298 302 310 311 310 305 297 283 266 237 228 218 220 228 226 221 217 210 213 218 221 223 220 218 217 217 216 219 224 229 230 232 239
327 325 323 321 319 314 313 310 308 308 299 294 294 295 312 313 304 294 273 250 240 238 236 230 232 230 216 211 214 216 216 218 208 212 214 215 215 217 219 226 227 228 240
319 323 320 310 301 300 300 303 309 311 302 297 294 307 303 299 294 294 288 274 260 243 238 238 234 232 222 212 211 215 215 209 207 211 211 212 212 212 221 226 225 228 233
302 301 295 294 295 298 300 300 298 303 301 300 302 308 308 303 299 295 294 290 280 270 260 249 239 230 228 218 219 218 214 206 206 210 210 211 209 211 218 219 221 225 230
285 276 281 286 286 289 294 298 295 297 298 299 301 302 311 309 304 303 299 299 294 284 274 261 248 239 232 232 231 230 220 212 215 217 210 208 206 209 214 212 213 215 224
288 276 273 277 283 288 287 288 294 289 295 297 293 301 303 299 299 299 299 301 296 292 281 268 257 247 240 234 234 237 231 228 222 218 216 208 205 208 212 212 216 221 226
300 292 284 279 280 279 280 285 288 289 285 289 293 293 295 296 298 302 303 299 287 286 282 273 261 250 244 241 237 237 227 223 219 216 207 203 207 210 209 210 215 218 223
297 296 290 283 276 279 280 282 281 286 285 284 288 288 288 284 287 292 294 294 288 281 272 272 263 247 239 233 230 226 220 213 209 203 201 203 206 205 205 208 208 212 223
Height
780 780 780 780 780 780 780 779 779 778 777 776 775 774 773 771 771 770 769 766 764 762 762 761 760 758 756 754 752 751 749 748 746 747 746 745 744 744 745 744 744 745 745
775 775 774 774 775 775 774 774 774 773 773 772 771 771 770 769 768 768 766 764 762 761 760 759 758 757 755 753 751 749 747 746 746 745 746 746 746 746 746 746 745 745 745
771 771 770 768 768 767 768 769 769 769 768 768 767 766 766 765 765 764 764 763 761 760 759 757 756 755 754 751 750 748 746 745 743 743 745 746 748 748 748 748 747 747 746
767 766 764 763 763 762 762 762 762 763 763 763 762 761 761 760 760 760 760 759 758 758 757 756 754 752 751 750 749 746 745 744 743 743 744 746 747 748 748 749 749 749 749
765 763 760 759 757 756 757 757 757 757 756 757 757 756 755 755 755 755 755 755 755 756 755 754 753 751 750 748 747 746 746 744 743 743 744 746 747 747 747 747 747 748 749
760 757 755 753 752 750 750 750 751 751 751 751 750 751 751 750 750 750 750 750 750 750 751 751 750 750 749 748 747 747 745 743 743 743 742 743 745 746 747 747 746 745 747
755 752 750 748 745 744 743 743 743 743 744 744 744 745 743 744 745 745 745 745 746 746 745 744 746 747 746 747 746 744 744 745 743 742 743 743 743 744 745 745 746 746 745
749 746 743 741 739 738 737 736 734 735 736 736 736 737 737 736 737 739 740 740 739 739 741 743 743 744 744 744 744 745 743 741 742 742 743 744 745 745 744 745 745 746 747
743 740 736 734 732 731 730 728 728 728 728 728 728 730 731 731 733 733 733 733 734 734 735 735 737 738 739 741 741 741 742 741 741 740 740 740 742 743 743 743 742 742 744
737 734 731 729 726 724 723 722 722 721 721 722 722 722 723 724 726 729 730 730 729 729 731 732 733 734 735 736 737 738 738 739 739 739 741 742 741 742 742 741 742 741 740
731 728 725 722 720 717 716 716 716 717 718 717 717 716 717 717 718 720 722 722 723 725 725 726 728 730 731 732 733 734 735 737 738 738 739 740 740 741 741 741 742 741 739
726 722 719 716 713 711 710 709 710 711 712 712 712 711 709 710 712 713 714 715 716 718 718 720 723 724 725 726 729 731 733 734 735 736 736 736 738 738 740 740 741 741 741
722 717 714 712 710 709 706 704 703 703 704 706 707 707 705 704 704 705 707 708 710 710 711 713 716 718 721 723 723 726 728 730 731 732 732 733 734 736 737 737 737 738 737
717 714 711 710 707 706 705 702 701 700 697 698 700 701 700 700 699 699 700 700 702 704 705 709 712 713 715 716 719 721 722 725 726 727 728 730 731 732 733 734 735 734 733
712 710 709 707 705 703 703 702 701 699 696 694 694 694 695 694 694 695 695 694 695 695 699 702 705 707 708 712 714 715 717 719 721 723 724 725 727 729 729 730 731 734 732
710 708 706 705 703 702 701 699 698 697 695 693 691 689 688 687 687 689 689 690 691 692 693 694 696 697 699 702 705 708 711 713 715 718 719 721 723 724 726 727 728 730 730
710 707 704 703 702 699 698 697 694 691 690 689 688 685 683 681 680 681 682 683 685 688 687 687 687 690 692 694 696 699 702 705 709 712 715 717 719 721 723 724 726 727 726
708 707 705 702 700 699 698 694 691 691 686 684 684 681 677 675 674 673 674 675 676 679 681 680 679 681 684 687 689 693 697 700 703 706 709 713 715 717 720 721 723 723 723
708 705 703 700 698 697 694 693 690 688 685 681 679 676 675 673 670 669 669 669 669 669 670 672 673 675 678 681 684 688 690 695 698 701 704 707 710 712 715 717 719 721 720
707 705 701 697 695 693 691 689 686 684 682 679 676 673 671 669 667 666 666 665 664 664 666 666 667 668 669 672 677 681 684 688 690 693 697 700 703 706 708 712 715 716 717
704 702 699 696 694 692 688 684 682 680 678 675 673 670 668 667 664 662 661 660 659 658 658 659 661 663 663 665 669 673 677 680 682 686 689 693 698 701 704 707 710 712 713
701 698 696 693 690 687 684 682 679 676 675 672 670 667 665 662 660 658 656 656 654 653 653 654 654 655 657 659 663 666 669 673 676 680 683 688 692 696 699 703 707 709 710
695 692 689 686 685 683 680 678 676 673 671 668 666 664 661 659 657 654 652 651 650 649 649 649 649 650 652 655 658 660 663 666 670 674 678 683 687 691 695 698 702 705 707
689 686 683 680 679 678 675 673 671 669 667 665 661 659 658 656 653 651 649 647 645 645 645 645 645 647 649 651 654 657 659 662 666 669 674 678 683 688 691 694 698 700 703
682 680 678 676 673 671 669 667 665 663 661 660 658 655 654 652 650 648 646 644 643 642 643 643 643 644 646 648 651 653 656 659 663 667 670 675 679 684 688 691 694 697 700
677 675 672 670 667 665 662 660 659 657 655 654 653 651 648 649 647 645 644 642 642 641 642 643 644 644 645 647 649 652 654 657 661 665 668 673 677 681 684 688 691 694 697